• In India
  • List of Countries
  • For 7 days
  • Water Temperature
  • Satellite Maps
  • Weather Map
  • Weather Widgets
  • user-avatar
    Login

    Hourly Weather Porgera Gold Mine

    Today, 19 June, Tuesday

    Time Temperature Precipitation Wind Pressure Humidity
    00:00 +9°C° 0 mm 0 mps 555 mmHg 96%
    01:00 +9°C° 0 mm 0 mps 555 mmHg 96%
    02:00 +9°C° 0 mm 0 mps 555 mmHg 95%
    03:00 +9°C° 0 mm 0 mps 555 mmHg 95%
    04:00 +9°C° 0 mm 1 mps 554 mmHg 94%
    05:00 +9°C° 0 mm 1 mps 554 mmHg 94%
    06:00 +9°C° 0 mm 1 mps 554 mmHg 94%
    07:00 +9°C° 0 mm 1 mps 555 mmHg 94%
    08:00 +12°C° 0 mm 1 mps 556 mmHg 84%
    09:00 +14°C° 0 mm 1 mps 558 mmHg 74%
    10:00 +18°C° 0 mm 1 mps 559 mmHg 64%
    11:00 +18°C° 0.4 mm 1 mps 559 mmHg 67%
    12:00 +18°C° 0.4 mm 1 mps 558 mmHg 71%
    13:00 +18°C° 0.4 mm 1 mps 558 mmHg 74%
    14:00 +16°C° 0.7 mm 1 mps 557 mmHg 77%
    15:00 +16°C° 0.7 mm 1 mps 557 mmHg 81%
    16:00 +15°C° 0.7 mm 1 mps 556 mmHg 85%
    17:00 +14°C° 0.6 mm 1 mps 556 mmHg 88%
    18:00 +12°C° 0.6 mm 0 mps 555 mmHg 92%
    19:00 +10°C° 0.6 mm 0 mps 555 mmHg 95%
    20:00 +10°C° 0.2 mm 0 mps 555 mmHg 96%
    21:00 +10°C° 0.2 mm 0 mps 555 mmHg 96%
    22:00 +10°C° 0.2 mm 0 mps 556 mmHg 96%
    23:00 +9°C° 0.1 mm 0 mps 555 mmHg 96%

    Tomorrow, 20 June, Wednesday

    Time Temperature Precipitation Wind Pressure Humidity
    00:00 +9°C° 0.1 mm 0 mps 555 mmHg 96%
    01:00 +10°C° 0.1 mm 1 mps 555 mmHg 97%
    02:00 +9°C° 0 mm 1 mps 555 mmHg 97%
    03:00 +9°C° 0 mm 1 mps 554 mmHg 96%
    04:00 +8°C° 0 mm 1 mps 554 mmHg 96%
    05:00 +8°C° 0 mm 1 mps 554 mmHg 96%
    06:00 +8°C° 0 mm 1 mps 554 mmHg 95%
    07:00 +8°C° 0 mm 1 mps 554 mmHg 95%
    08:00 +11°C° 0 mm 1 mps 556 mmHg 81%
    09:00 +15°C° 0 mm 1 mps 558 mmHg 68%
    10:00 +19°C° 0 mm 1 mps 560 mmHg 54%
    11:00 +19°C° 0 mm 1 mps 560 mmHg 53%
    12:00 +20°C° 0 mm 1 mps 559 mmHg 53%
    13:00 +20°C° 0 mm 1 mps 559 mmHg 52%
    14:00 +19°C° 0.3 mm 1 mps 558 mmHg 57%
    15:00 +19°C° 0.3 mm 1 mps 557 mmHg 62%
    16:00 +18°C° 0.3 mm 1 mps 557 mmHg 67%
    17:00 +15°C° 0.3 mm 1 mps 556 mmHg 76%
    18:00 +12°C° 0.3 mm 0 mps 555 mmHg 85%
    19:00 +10°C° 0.3 mm 0 mps 554 mmHg 95%
    20:00 +10°C° 0 mm 0 mps 555 mmHg 95%
    21:00 +9°C° 0 mm 0 mps 555 mmHg 95%
    22:00 +10°C° 0 mm 1 mps 555 mmHg 95%
    23:00 +10°C° 0 mm 1 mps 555 mmHg 95%

    Day after tomorrow, 21 June, Thursday

    Time Temperature Precipitation Wind Pressure Humidity
    00:00 +9°C° 0 mm 1 mps 555 mmHg 95%
    01:00 +9°C° 0 mm 1 mps 554 mmHg 95%
    02:00 +9°C° 0 mm 1 mps 554 mmHg 94%
    03:00 +9°C° 0 mm 1 mps 554 mmHg 94%
    04:00 +8°C° 0 mm 1 mps 553 mmHg 93%
    05:00 +8°C° 0 mm 1 mps 554 mmHg 92%
    06:00 +8°C° 0 mm 1 mps 554 mmHg 91%
    07:00 +8°C° 0 mm 1 mps 554 mmHg 90%
    08:00 +11°C° 0 mm 1 mps 556 mmHg 76%
    09:00 +15°C° 0 mm 1 mps 558 mmHg 62%
    10:00 +19°C° 0 mm 1 mps 560 mmHg 48%
    11:00 +20°C° 0 mm 1 mps 560 mmHg 46%
    12:00 +21°C° 0 mm 1 mps 560 mmHg 45%
    13:00 +21°C° 0 mm 2 mps 559 mmHg 44%
    14:00 +20°C° 0.2 mm 1 mps 558 mmHg 53%
    15:00 +19°C° 0.2 mm 1 mps 557 mmHg 63%
    16:00 +18°C° 0.2 mm 1 mps 556 mmHg 72%
    17:00 +15°C° 0.5 mm 1 mps 556 mmHg 80%
    18:00 +12°C° 0.5 mm 0 mps 555 mmHg 87%
    19:00 +10°C° 0.5 mm 0 mps 555 mmHg 95%
    20:00 +10°C° 0.1 mm 0 mps 555 mmHg 95%
    21:00 +10°C° 0.1 mm 0 mps 555 mmHg 95%
    22:00 +10°C° 0.1 mm 0 mps 555 mmHg 95%
    23:00 +9°C° 0 mm 0 mps 555 mmHg 95%

    22 June, Friday

    Time Temperature Precipitation Wind Pressure Humidity
    00:00 +9°C° 0 mm 0 mps 555 mmHg 95%
    01:00 +9°C° 0 mm 0 mps 555 mmHg 95%
    02:00 +10°C° 0 mm 1 mps 554 mmHg 95%
    03:00 +9°C° 0 mm 1 mps 554 mmHg 95%
    04:00 +9°C° 0 mm 1 mps 554 mmHg 95%
    05:00 +9°C° 0 mm 1 mps 554 mmHg 94%
    06:00 +9°C° 0 mm 1 mps 554 mmHg 94%
    07:00 +9°C° 0 mm 1 mps 554 mmHg 93%
    08:00 +12°C° 0 mm 1 mps 556 mmHg 81%
    09:00 +15°C° 0 mm 1 mps 558 mmHg 68%
    10:00 +19°C° 0 mm 1 mps 559 mmHg 55%
    11:00 +19°C° 0.1 mm 1 mps 559 mmHg 53%
    12:00 +20°C° 0.1 mm 1 mps 559 mmHg 51%
    13:00 +19°C° 0.1 mm 2 mps 559 mmHg 49%
    14:00 +18°C° 0.4 mm 2 mps 558 mmHg 57%
    15:00 +18°C° 0.4 mm 1 mps 557 mmHg 65%
    16:00 +16°C° 0.4 mm 1 mps 556 mmHg 72%
    17:00 +14°C° 0.4 mm 1 mps 555 mmHg 80%
    18:00 +12°C° 0.4 mm 0 mps 555 mmHg 88%
    19:00 +10°C° 0.4 mm 0 mps 555 mmHg 95%
    20:00 +10°C° 0 mm 0 mps 555 mmHg 96%
    21:00 +9°C° 0 mm 0 mps 555 mmHg 96%
    22:00 +9°C° 0 mm 0 mps 555 mmHg 96%
    23:00 +10°C° 0 mm 1 mps 555 mmHg 96%

    23 June, Saturday

    Time Temperature Precipitation Wind Pressure Humidity
    00:00 +10°C° 0 mm 1 mps 555 mmHg 96%
    01:00 +9°C° 0 mm 1 mps 554 mmHg 95%
    02:00 +9°C° 0 mm 1 mps 554 mmHg 95%
    03:00 +9°C° 0 mm 1 mps 553 mmHg 94%
    04:00 +8°C° 0 mm 1 mps 553 mmHg 94%
    05:00 +8°C° 0 mm 1 mps 553 mmHg 93%
    06:00 +8°C° 0 mm 1 mps 553 mmHg 92%
    07:00 +8°C° 0 mm 1 mps 554 mmHg 91%
    08:00 +11°C° 0 mm 1 mps 556 mmHg 78%
    09:00 +14°C° 0 mm 1 mps 557 mmHg 66%
    10:00 +18°C° 0 mm 1 mps 559 mmHg 54%
    11:00 +19°C° 0.1 mm 1 mps 559 mmHg 54%
    12:00 +19°C° 0.1 mm 1 mps 558 mmHg 55%
    13:00 +18°C° 0.1 mm 2 mps 558 mmHg 55%
    14:00 +18°C° 0.4 mm 1 mps 557 mmHg 62%
    15:00 +18°C° 0.4 mm 1 mps 556 mmHg 69%
    16:00 +16°C° 0.4 mm 1 mps 555 mmHg 76%
    17:00 +14°C° 0.4 mm 1 mps 555 mmHg 82%
    18:00 +12°C° 0.4 mm 0 mps 555 mmHg 88%
    19:00 +10°C° 0.4 mm 0 mps 554 mmHg 95%
    20:00 +10°C° 0.2 mm 0 mps 555 mmHg 95%
    21:00 +10°C° 0.2 mm 0 mps 555 mmHg 95%
    22:00 +9°C° 0.2 mm 0 mps 555 mmHg 95%
    23:00 +9°C° 0 mm 0 mps 555 mmHg 95%

    24 June, Sunday

    Time Temperature Precipitation Wind Pressure Humidity
    00:00 +9°C° 0 mm 0 mps 555 mmHg 95%
    01:00 +10°C° 0 mm 1 mps 554 mmHg 95%
    02:00 +10°C° 0.1 mm 1 mps 554 mmHg 95%
    03:00 +9°C° 0.1 mm 1 mps 554 mmHg 94%
    04:00 +9°C° 0.1 mm 1 mps 553 mmHg 94%
    05:00 +9°C° 0 mm 1 mps 554 mmHg 94%
    06:00 +9°C° 0 mm 1 mps 554 mmHg 93%
    07:00 +9°C° 0 mm 1 mps 554 mmHg 93%
    08:00 +12°C° 0 mm 1 mps 556 mmHg 81%
    09:00 +15°C° 0 mm 1 mps 557 mmHg 70%
    10:00 +18°C° 0 mm 1 mps 559 mmHg 58%
    11:00 +18°C° 0.2 mm 1 mps 558 mmHg 61%
    12:00 +18°C° 0.2 mm 1 mps 557 mmHg 64%
    13:00 +18°C° 0.2 mm 1 mps 557 mmHg 67%
    14:00 +16°C° 0.7 mm 1 mps 556 mmHg 72%
    15:00 +16°C° 0.7 mm 1 mps 555 mmHg 77%
    16:00 +15°C° 0.7 mm 1 mps 555 mmHg 83%
    17:00 +14°C° 0.8 mm 1 mps 555 mmHg 87%
    18:00 +11°C° 0.8 mm 0 mps 555 mmHg 91%
    19:00 +10°C° 0.8 mm 0 mps 554 mmHg 96%
    20:00 +10°C° 0.5 mm 0 mps 555 mmHg 96%
    21:00 +10°C° 0.5 mm 0 mps 555 mmHg 96%
    22:00 +10°C° 0.5 mm 0 mps 555 mmHg 96%
    23:00 +10°C° 0.7 mm 0 mps 555 mmHg 96%
    Show more